Pittsburg, KS

8:02 PM CDT on April 30, 2017 (GMT -0500)
Atkinson Municipal

Weather History for KPTS - January, 2014

Change the Weather History Date:

Friday, January 3, 2014

  Actual Average (KJLN) Record (KJLN)
Temperature  
Mean Temperature 22 °F -  
Max Temperature 41 °F 41 °F 74 °F (2009)
Min Temperature 4 °F 24 °F 0 °F (1959)
Degree Days  
Heating Degree Days 42    
Moisture  
Dew Point 15 °F    
Average Humidity 65    
Maximum Humidity 92    
Minimum Humidity 48    
Precipitation  
Precipitation 0.00 in - - ()
Sea Level Pressure  
Sea Level Pressure 30.16 in    
Wind  
Wind Speed 8 mph (South)    
Max Wind Speed 22 mph    
Max Gust Speed 32 mph    
Visibility 10 miles    
Events      
Averages and records for this station are not official NWS values.
T = Trace of Precipitation, MM = Missing Value Source: NWS Daily Summary

Daily Weather History Graph

Daily Weather History Graph

Search for Another Location

Airport or City:

Trip Planner

Search our weather history database for the weather conditions in past years. The results will help you decide how hot, cold, wet, or windy it might be!

Date:

Astronomy

Jan. 03, 2014 Rise Set
Actual Time 7:33 AM CST 5:13 PM CST
Civil Twilight 7:04 AM CST 5:42 PM CST
Nautical Twilight 6:32 AM CST 6:15 PM CST
Astronomical Twilight 6:00 AM CST 6:46 PM CST
Moon 9:03 AM CST (1/3) 8:19 PM CST (1/3)
Length of Visible Light 10h 37m
Length of Day
9h 39m
Waxing Crescent, 8% of the Moon is Illuminated
Jan 3
Waxing Crescent
Jan 7
First Quarter
Jan 15
Full
Jan 23
Last Quarter
Jan 30
New

Hourly Weather History & Observations

Time (CST) Temp. Windchill Dew Point Humidity Pressure Visibility Wind Dir Wind Speed Gust Speed Precip Events Conditions
12:15 AM 6.4 °F - 4.5 °F 92% 30.46 in 10.0 mi Calm Calm - N/A   Clear
12:35 AM 5.2 °F - 3.2 °F 92% 30.45 in 10.0 mi Calm Calm - N/A   Clear
12:55 AM 4.8 °F - 2.8 °F 92% 30.45 in 10.0 mi Calm Calm - N/A   Clear
1:15 AM 5.7 °F - 3.9 °F 92% 30.44 in 10.0 mi Calm Calm - N/A   Clear
1:35 AM 5.2 °F - 3.0 °F 91% 30.44 in 10.0 mi Calm Calm - N/A   Clear
1:55 AM 6.6 °F - 4.3 °F 90% 30.44 in 10.0 mi Calm Calm - N/A   Clear
2:15 AM 5.4 °F - 2.8 °F 89% 30.44 in 10.0 mi Calm Calm - N/A   Clear
2:35 AM 6.1 °F - 3.9 °F 91% 30.44 in 10.0 mi Calm Calm - N/A   Clear
2:55 AM 6.1 °F - 3.6 °F 89% 30.44 in 10.0 mi Calm Calm - N/A   Clear
3:15 AM 7.5 °F - 4.8 °F 89% 30.43 in 10.0 mi Calm Calm - N/A   Scattered Clouds
3:35 AM 9.5 °F 3.0 °F 7.2 °F 90% 30.42 in 10.0 mi SSE 3.5 mph - N/A   Mostly Cloudy
3:55 AM 12.9 °F 3.8 °F 9.5 °F 86% 30.42 in 10.0 mi South 5.8 mph - N/A   Mostly Cloudy
4:15 AM 15.3 °F 9.6 °F 10.0 °F 80% 30.39 in 10.0 mi SE 3.5 mph - N/A   Mostly Cloudy
4:35 AM 13.3 °F 5.6 °F 7.9 °F 79% 30.39 in 10.0 mi SSE 4.6 mph - N/A   Scattered Clouds
4:55 AM 13.1 °F 4.0 °F 7.5 °F 78% 30.38 in 10.0 mi SSE 5.8 mph - N/A   Clear
5:15 AM 13.5 °F 4.4 °F 7.9 °F 78% 30.38 in 10.0 mi South 5.8 mph - N/A   Clear
5:35 AM 15.4 °F 6.8 °F 9.3 °F 77% 30.36 in 10.0 mi SSE 5.8 mph - N/A   Clear
5:55 AM 15.6 °F 5.9 °F 8.6 °F 74% 30.36 in 10.0 mi SSE 6.9 mph - N/A   Clear
6:15 AM 15.6 °F 5.9 °F 8.2 °F 73% 30.35 in 10.0 mi SSE 6.9 mph - N/A   Clear
6:35 AM 15.6 °F 5.9 °F 7.9 °F 72% 30.35 in 10.0 mi SSE 6.9 mph - N/A   Clear
6:55 AM 15.6 °F 4.9 °F 8.4 °F 73% 30.34 in 10.0 mi SSE 8.1 mph - N/A   Clear
7:15 AM 15.6 °F 4.0 °F 8.4 °F 73% 30.33 in 10.0 mi SSE 9.2 mph - N/A   Clear
7:35 AM 15.6 °F 5.9 °F 8.6 °F 74% 30.32 in 10.0 mi SSE 6.9 mph - N/A   Clear
7:55 AM 15.6 °F 7.0 °F 9.0 °F 75% 30.32 in 10.0 mi South 5.8 mph - N/A   Clear
8:15 AM 16.3 °F 6.7 °F 9.3 °F 74% 30.32 in 10.0 mi South 6.9 mph - N/A   Clear
8:35 AM 17.8 °F 5.9 °F 10.2 °F 72% 30.31 in 10.0 mi South 10.4 mph - N/A   Clear
8:55 AM 18.9 °F 8.8 °F 10.8 °F 71% 30.30 in 10.0 mi South 8.1 mph - N/A   Clear
9:15 AM 20.7 °F 10.2 °F 11.5 °F 68% 30.29 in 10.0 mi South 9.2 mph - N/A   Clear
9:35 AM 21.7 °F 10.2 °F 11.8 °F 66% 30.29 in 10.0 mi South 11.5 mph - N/A   Clear
9:55 AM 23.2 °F 10.8 °F 12.7 °F 64% 30.28 in 10.0 mi South 13.8 mph 18.4 mph N/A   Clear
10:15 AM 25.5 °F 15.5 °F 14.2 °F 62% 30.29 in 10.0 mi South 10.4 mph - N/A   Clear
10:35 AM 27.9 °F 17.8 °F 16.0 °F 61% 30.27 in 10.0 mi South 11.5 mph - N/A   Clear
10:55 AM 30.2 °F 19.8 °F 17.8 °F 60% 30.25 in 10.0 mi South 13.8 mph - N/A   Clear
11:15 AM 31.1 °F 21.4 °F 18.3 °F 59% 30.24 in 10.0 mi SSW 12.7 mph 19.6 mph N/A   Clear
11:35 AM 32.2 °F 21.8 °F 19.2 °F 59% 30.22 in 10.0 mi SSW 15.0 mph 18.4 mph N/A   Clear
11:55 AM 32.9 °F 22.8 °F 20.3 °F 60% 30.20 in 10.0 mi South 15.0 mph 23.0 mph N/A   Clear
12:15 PM 33.6 °F 24.1 °F 21.2 °F 60% 30.18 in 10.0 mi SSW 13.8 mph 24.2 mph N/A   Clear
12:35 PM 35.6 °F 25.2 °F 22.6 °F 59% 30.16 in 10.0 mi South 18.4 mph 26.5 mph N/A   Clear
12:55 PM 35.6 °F 25.9 °F 22.6 °F 59% 30.14 in 10.0 mi South 16.1 mph 23.0 mph N/A   Clear
1:15 PM 35.6 °F 26.6 °F 22.5 °F 59% 30.12 in 10.0 mi SSW 13.8 mph 24.2 mph N/A   Clear
1:35 PM 36.5 °F 27.0 °F 23.4 °F 59% 30.10 in 10.0 mi South 16.1 mph 27.6 mph N/A   Clear
1:55 PM 37.8 °F 28.0 °F 24.1 °F 58% 30.08 in 10.0 mi South 18.4 mph 24.2 mph N/A   Clear
2:15 PM 37.9 °F 28.9 °F 23.5 °F 56% 30.06 in 10.0 mi South 16.1 mph 27.6 mph N/A   Clear
2:35 PM 39.4 °F 29.8 °F 24.3 °F 55% 30.04 in 10.0 mi South 19.6 mph 25.3 mph N/A   Clear
2:55 PM 40.5 °F 31.8 °F 24.4 °F 53% 30.03 in 10.0 mi South 17.3 mph 24.2 mph N/A   Clear
3:15 PM 40.5 °F 31.8 °F 23.7 °F 51% 30.02 in 10.0 mi South 17.3 mph 24.2 mph N/A   Clear
3:35 PM 40.6 °F 30.9 °F 23.5 °F 51% 30.01 in 10.0 mi SSW 21.9 mph 31.1 mph N/A   Clear
3:55 PM 41.0 °F 32.2 °F 22.8 °F 48% 30.00 in 10.0 mi South 18.4 mph 25.3 mph N/A   Clear
4:15 PM 40.8 °F 32.3 °F 22.5 °F 48% 29.98 in 10.0 mi South 17.3 mph 32.2 mph N/A   Clear
4:35 PM 40.5 °F 31.2 °F 21.9 °F 48% 29.97 in 10.0 mi South 19.6 mph 26.5 mph N/A   Clear
4:55 PM 40.5 °F 31.8 °F 22.1 °F 48% 29.96 in 10.0 mi South 17.3 mph 24.2 mph N/A   Clear
5:15 PM 39.9 °F 31.4 °F 22.3 °F 49% 29.94 in 10.0 mi South 16.1 mph 20.7 mph N/A   Clear
5:35 PM 38.1 °F 28.4 °F 21.4 °F 51% 29.93 in 10.0 mi South 18.4 mph 25.3 mph N/A   Clear
5:55 PM 37.9 °F 28.5 °F 20.8 °F 50% 29.92 in 10.0 mi South 17.3 mph 26.5 mph N/A   Clear
6:15 PM 37.9 °F 27.6 °F 21.0 °F 51% 29.91 in 10.0 mi South 20.7 mph 26.5 mph N/A   Clear
6:35 PM 37.9 °F 27.6 °F 21.0 °F 51% 29.91 in 10.0 mi South 20.7 mph 29.9 mph N/A   Clear
6:55 PM 37.9 °F 28.9 °F 21.4 °F 51% 29.91 in 10.0 mi South 16.1 mph 24.2 mph N/A   Clear
7:15 PM 37.9 °F 28.5 °F 21.6 °F 52% 29.92 in 10.0 mi South 17.3 mph 25.3 mph N/A   Clear
7:35 PM 36.7 °F 26.6 °F 20.7 °F 52% 29.92 in 10.0 mi SSW 18.4 mph 23.0 mph N/A   Clear
7:55 PM 35.8 °F 25.4 °F 19.9 °F 53% 29.91 in 10.0 mi SSW 18.4 mph 23.0 mph N/A   Clear
8:15 PM 35.6 °F 25.5 °F 20.1 °F 53% 29.91 in 10.0 mi SSW 17.3 mph 21.9 mph N/A   Clear
8:35 PM 35.6 °F 25.5 °F 20.3 °F 54% 29.91 in 10.0 mi SSW 17.3 mph 23.0 mph N/A   Clear
8:55 PM 35.6 °F 25.5 °F 20.3 °F 54% 29.91 in 10.0 mi SSW 17.3 mph 23.0 mph N/A   Clear
9:15 PM 35.6 °F 25.5 °F 20.3 °F 54% 29.90 in 10.0 mi SSW 17.3 mph 21.9 mph N/A   Clear
9:35 PM 35.6 °F 26.2 °F 20.3 °F 54% 29.91 in 10.0 mi SSW 15.0 mph 24.2 mph N/A   Clear
9:55 PM 35.6 °F 25.5 °F 20.3 °F 54% 29.91 in 10.0 mi SSW 17.3 mph 23.0 mph N/A   Clear
10:15 PM 35.6 °F 26.2 °F 20.5 °F 54% 29.91 in 10.0 mi SSW 15.0 mph 20.7 mph N/A   Clear
10:35 PM 35.6 °F 26.6 °F 21.0 °F 55% 29.90 in 10.0 mi SSW 13.8 mph - N/A   Clear
10:55 PM 35.6 °F 27.5 °F 21.2 °F 56% 29.90 in 10.0 mi SSW 11.5 mph 19.6 mph N/A   Clear
11:15 PM 35.6 °F 26.2 °F 21.2 °F 56% 29.89 in 10.0 mi SSW 15.0 mph 20.7 mph N/A   Clear
11:35 PM 35.6 °F 25.2 °F 20.8 °F 55% 29.87 in 10.0 mi SSW 18.4 mph 23.0 mph N/A   Clear
11:55 PM 35.6 °F 24.8 °F 20.5 °F 54% 29.87 in 10.0 mi SSW 19.6 mph 24.2 mph N/A   Clear